Time,TemperatureF,DewpointF,PressureIn,WindDirection,WindDirectionDegrees,WindSpeedMPH,WindSpeedGustMPH,Humidity,HourlyPrecipIn,Conditions,Clouds,dailyrainin,SoftwareType,DateUTC
2013-02-21 00:32:00,29.0,-99.9,-100.00,WSW,239,0.0,0.0,-999,-99.99,,,-99.99,,2013-02-21 08:32:00,
2013-02-21 00:42:00,29.0,-99.9,-100.00,WSW,239,0.0,0.0,-999,-99.99,,,-99.99,,2013-02-21 08:42:00,
2013-02-21 01:20:00,31.0,-99.9,-100.00,WSW,240,0.0,0.0,-999,-99.99,,,-99.99,,2013-02-21 09:20:00,
2013-02-21 01:50:00,31.0,-99.9,-100.00,WSW,248,0.0,0.0,-999,-99.99,,,-99.99,,2013-02-21 09:50:00,
2013-02-21 01:52:00,29.0,-99.9,-100.00,SW,229,0.0,0.0,-999,-99.99,,,-99.99,,2013-02-21 09:52:00,
2013-02-21 02:01:00,31.0,-99.9,-100.00,WSW,240,0.0,0.0,-999,-99.99,,,-99.99,,2013-02-21 10:01:00,
2013-02-21 02:11:00,31.0,-99.9,-100.00,WSW,240,0.0,0.0,-999,-99.99,,,-99.99,,2013-02-21 10:11:00,
2013-02-21 02:31:00,31.0,-99.9,-100.00,WSW,248,0.0,0.0,-999,-99.99,,,-99.99,,2013-02-21 10:31:00,
2013-02-21 02:41:00,31.0,-99.9,-100.00,WSW,248,0.0,0.0,-999,-99.99,,,-99.99,,2013-02-21 10:41:00,
2013-02-21 03:00:00,32.0,-99.9,-100.00,SW,236,0.0,0.0,-999,-99.99,,,-99.99,,2013-02-21 11:00:00,
2013-02-21 03:40:00,32.0,-99.9,-100.00,SW,236,0.0,0.0,-999,-99.99,,,-99.99,,2013-02-21 11:40:00,
2013-02-21 03:52:00,32.0,-99.9,-100.00,SW,236,0.0,0.0,-999,-99.99,,,-99.99,,2013-02-21 11:52:00,
2013-02-21 04:22:00,32.0,-99.9,-100.00,SW,236,0.0,0.0,-999,-99.99,,,-99.99,,2013-02-21 12:22:00,
2013-02-21 04:32:00,32.0,-99.9,-100.00,SW,236,0.0,0.0,-999,-99.99,,,-99.99,,2013-02-21 12:32:00,
2013-02-21 06:10:00,32.0,-99.9,-100.00,ESE,112,0.0,0.0,-999,-99.99,,,-99.99,,2013-02-21 14:10:00,
2013-02-21 06:52:00,32.0,-99.9,-100.00,ESE,112,0.0,0.0,-999,-99.99,,,-99.99,,2013-02-21 14:52:00,
2013-02-21 07:02:00,32.0,-99.9,-100.00,ESE,112,0.0,0.0,-999,-99.99,,,-99.99,,2013-02-21 15:02:00,
2013-02-21 07:22:00,31.0,-99.9,-100.00,SW,236,0.0,0.0,-999,-99.99,,,-99.99,,2013-02-21 15:22:00,
2013-02-21 07:32:00,31.0,-99.9,-100.00,SW,236,0.0,0.0,-999,-99.99,,,-99.99,,2013-02-21 15:32:00,
2013-02-21 08:02:00,32.0,-99.9,-100.00,WSW,249,0.0,0.0,-999,-99.99,,,-99.99,,2013-02-21 16:02:00,
2013-02-21 08:12:00,32.0,-99.9,-100.00,WSW,249,0.0,0.0,-999,-99.99,,,-99.99,,2013-02-21 16:12:00,
2013-02-21 08:22:00,32.0,-99.9,-100.00,WSW,250,0.0,0.0,-999,-99.99,,,-99.99,,2013-02-21 16:22:00,
2013-02-21 08:32:00,32.0,-99.9,-100.00,WSW,250,0.0,0.0,-999,-99.99,,,-99.99,,2013-02-21 16:32:00,
2013-02-21 10:50:00,40.0,-99.9,-100.00,SW,231,0.0,0.0,-999,-99.99,,,-99.99,,2013-02-21 18:50:00,
2013-02-21 11:22:00,40.0,-99.9,-100.00,SW,235,0.0,0.0,-999,-99.99,,,-99.99,,2013-02-21 19:22:00,
2013-02-21 11:32:00,40.0,-99.9,-100.00,SW,231,0.0,0.0,-999,-99.99,,,-99.99,,2013-02-21 19:32:00,
2013-02-21 11:42:00,40.0,-99.9,-100.00,SW,231,0.0,0.0,-999,-99.99,,,-99.99,,2013-02-21 19:42:00,
2013-02-21 14:20:00,43.0,-99.9,-100.00,East,87,0.0,0.0,-999,-99.99,,,-99.99,,2013-02-21 22:20:00,
2013-02-21 14:32:00,42.0,-99.9,-100.00,West,269,0.0,0.0,-999,-99.99,,,-99.99,,2013-02-21 22:32:00,
2013-02-21 14:42:00,42.0,-99.9,-100.00,West,269,0.0,0.0,-999,-99.99,,,-99.99,,2013-02-21 22:42:00,
2013-02-21 14:52:00,43.0,-99.9,-100.00,SW,230,0.0,0.0,-999,-99.99,,,-99.99,,2013-02-21 22:52:00,
2013-02-21 15:01:00,43.0,-99.9,-100.00,East,87,0.0,0.0,-999,-99.99,,,-99.99,,2013-02-21 23:01:00,
2013-02-21 15:11:00,43.0,-99.9,-100.00,East,87,0.0,0.0,-999,-99.99,,,-99.99,,2013-02-21 23:11:00,
2013-02-21 15:32:00,41.0,-99.9,-100.00,SSW,212,0.0,0.0,-999,-99.99,,,-99.99,,2013-02-21 23:32:00,
2013-02-21 15:40:00,40.0,-99.9,-100.00,SW,220,0.0,0.0,-999,-99.99,,,-99.99,,2013-02-21 23:40:00,
2013-02-21 15:42:00,41.0,-99.9,-100.00,SSW,212,0.0,0.0,-999,-99.99,,,-99.99,,2013-02-21 23:42:00,
2013-02-21 16:02:00,42.0,-99.9,-100.00,NW,321,0.0,0.0,-999,-99.99,,,-99.99,,2013-02-22 00:02:00,
2013-02-21 16:11:00,42.0,-99.9,-100.00,NW,321,0.0,0.0,-999,-99.99,,,-99.99,,2013-02-22 00:11:00,
2013-02-21 16:22:00,40.0,-99.9,-100.00,SW,220,0.0,0.0,-999,-99.99,,,-99.99,,2013-02-22 00:22:00,
2013-02-21 16:32:00,40.0,-99.9,-100.00,SW,220,0.0,0.0,-999,-99.99,,,-99.99,,2013-02-22 00:32:00,
2013-02-21 16:52:00,40.0,-99.9,-100.00,NW,321,0.0,0.0,-999,-99.99,,,-99.99,,2013-02-22 00:52:00,
2013-02-21 17:01:00,40.0,-99.9,-100.00,NW,321,0.0,0.0,-999,-99.99,,,-99.99,,2013-02-22 01:01:00,
2013-02-21 18:50:00,35.0,-99.9,-100.00,WSW,242,0.0,0.0,-999,-99.99,,,-99.99,,2013-02-22 02:50:00,
2013-02-21 19:02:00,36.0,-99.9,-100.00,SW,222,0.0,0.0,-999,-99.99,,,-99.99,,2013-02-22 03:02:00,
2013-02-21 19:11:00,36.0,-99.9,-100.00,SW,222,0.0,0.0,-999,-99.99,,,-99.99,,2013-02-22 03:11:00,
2013-02-21 19:32:00,35.0,-99.9,-100.00,WSW,242,0.0,0.0,-999,-99.99,,,-99.99,,2013-02-22 03:32:00,
2013-02-21 19:42:00,35.0,-99.9,-100.00,WSW,242,0.0,0.0,-999,-99.99,,,-99.99,,2013-02-22 03:42:00,
2013-02-21 21:52:00,32.0,-99.9,-100.00,SW,226,0.0,0.0,-999,-99.99,,,-99.99,,2013-02-22 05:52:00,
2013-02-21 22:02:00,31.0,-99.9,-100.00,SSW,210,0.0,0.0,-999,-99.99,,,-99.99,,2013-02-22 06:02:00,
2013-02-21 22:12:00,31.0,-99.9,-100.00,SSW,210,0.0,0.0,-999,-99.99,,,-99.99,,2013-02-22 06:12:00,
2013-02-21 22:22:00,31.0,-99.9,-100.00,SSW,210,0.0,0.0,-999,-99.99,,,-99.99,,2013-02-22 06:22:00,
2013-02-21 23:01:00,32.0,-99.9,-100.00,NW,326,0.0,0.0,-999,-99.99,,,-99.99,,2013-02-22 07:01:00,
2013-02-21 23:11:00,32.0,-99.9,-100.00,NW,326,0.0,0.0,-999,-99.99,,,-99.99,,2013-02-22 07:11:00,